Tracking 19644 objects as of 26-Apr-2019
HD Live streaming from Space Station
objects crossing your sky now

SL-18 DEB


SL-18 DEB is no longer on orbit


NORAD ID: 35353
Int'l Code: 1993-014BC
Perigee: N/A
Apogee: N/A
Inclination: N/A
Period: N/A
Semi major axis: N/A
RCS: N/A
Launch date: March 25, 1993
Source: Commonwealth of Independent States (former USSR) (CIS)
Launch site: PLESETSK MISSILE AND SPACE COMPLEX (PKMTR)
Decay date: 2015-03-20

Note: This is SATELLITE DEBRIS
aabbcc
Your satellite tracking list
Your tracking list is empty




NASA's NSSDC Master Catalog

Two Line Element Set (TLE):
1 35353U 93014BC  15061.28688053  .00628767  00000-0  16573-1 0  9998
2 35353 075.6936 280.4287 0023989 206.8971 153.6174 15.36049907327364
Source of the keplerian elements: AFSPC